Time,TemperatureF,DewpointF,PressureIn,WindDirection,WindDirectionDegrees,WindSpeedMPH,WindSpeedGustMPH,Humidity,HourlyPrecipIn,Conditions,Clouds,dailyrainin,SolarRadiationWatts/m^2,SoftwareType,DateUTC
2013-01-09 00:03:00,40.8,33.5,30.04,SSW,204,11.5,11.5,75,0.00,RA,,0.00,0.0,WeatherDisplay:10.37,2013-01-09 06:03:00,
2013-01-09 00:08:00,40.7,33.7,30.04,SW,217,11.5,11.5,76,0.00,RA,,0.00,0.0,WeatherDisplay:10.37,2013-01-09 06:08:00,
2013-01-09 00:13:00,40.9,33.9,30.04,WSW,239,15.0,15.0,76,0.00,CLR,,0.00,0.0,WeatherDisplay:10.37,2013-01-09 06:13:00,
2013-01-09 00:18:00,41.1,34.1,30.04,SW,226,18.4,18.4,76,0.00,CLR,,0.00,0.0,WeatherDisplay:10.37,2013-01-09 06:18:00,
2013-01-09 00:23:00,41.1,33.8,30.04,WSW,248,11.5,11.5,75,0.00,CLR,,0.00,0.0,WeatherDisplay:10.37,2013-01-09 06:23:00,
2013-01-09 00:28:00,41.1,33.8,30.05,WSW,250,11.5,11.5,75,0.00,CLR,,0.00,0.0,WeatherDisplay:10.37,2013-01-09 06:28:00,
2013-01-09 00:33:00,41.0,33.7,30.05,WSW,244,10.4,10.4,75,0.00,CLR,,0.00,0.0,WeatherDisplay:10.37,2013-01-09 06:33:00,
2013-01-09 00:38:00,40.8,33.5,30.05,SW,232,6.9,6.9,75,0.00,CLR,,0.00,0.0,WeatherDisplay:10.37,2013-01-09 06:38:00,
2013-01-09 00:43:00,40.9,33.9,30.05,SW,215,13.8,13.8,76,0.00,CLR,,0.00,0.0,WeatherDisplay:10.37,2013-01-09 06:43:00,
2013-01-09 00:48:00,41.1,34.1,30.05,SW,223,18.4,18.4,76,0.00,CLR,,0.00,0.0,WeatherDisplay:10.37,2013-01-09 06:48:00,
2013-01-09 00:53:00,41.3,34.0,30.06,WSW,242,12.7,12.7,75,0.00,CLR,,0.00,0.0,WeatherDisplay:10.37,2013-01-09 06:53:00,
2013-01-09 00:58:00,41.2,33.9,30.06,SW,227,10.4,10.4,75,0.00,CLR,,0.00,0.0,WeatherDisplay:10.37,2013-01-09 06:58:00,
2013-01-09 01:03:00,41.1,34.1,30.06,WSW,243,13.8,13.8,76,0.00,CLR,,0.00,0.0,WeatherDisplay:10.37,2013-01-09 07:03:00,
2013-01-09 01:08:00,41.2,33.9,30.06,SSW,211,11.5,11.5,75,0.00,CLR,,0.00,0.0,WeatherDisplay:10.37,2013-01-09 07:08:00,
2013-01-09 01:13:00,41.1,34.1,30.07,SW,232,9.2,9.2,76,0.00,CLR,,0.00,0.0,WeatherDisplay:10.37,2013-01-09 07:13:00,
2013-01-09 01:19:00,40.9,33.9,30.07,WSW,256,6.9,6.9,76,0.00,CLR,,0.00,0.0,WeatherDisplay:10.37,2013-01-09 07:19:00,
2013-01-09 01:24:00,40.7,33.7,30.08,WSW,243,9.2,9.2,76,0.00,CLR,,0.00,0.0,WeatherDisplay:10.37,2013-01-09 07:24:00,
2013-01-09 01:29:00,40.6,34.0,30.08,WSW,246,9.2,9.2,77,0.00,CLR,,0.00,0.0,WeatherDisplay:10.37,2013-01-09 07:29:00,
2013-01-09 01:34:00,40.5,33.9,30.09,West,259,11.5,11.5,77,0.00,CLR,,0.00,0.0,WeatherDisplay:10.37,2013-01-09 07:34:00,
2013-01-09 01:39:00,40.4,33.8,30.09,WSW,243,6.9,6.9,77,0.00,CLR,,0.00,0.0,WeatherDisplay:10.37,2013-01-09 07:39:00,
2013-01-09 01:44:00,40.3,33.7,30.09,WSW,248,6.9,6.9,77,0.00,CLR,,0.00,0.0,WeatherDisplay:10.37,2013-01-09 07:44:00,
2013-01-09 01:49:00,40.2,33.9,30.10,West,265,11.5,11.5,78,0.00,CLR,,0.00,0.0,WeatherDisplay:10.37,2013-01-09 07:49:00,
2013-01-09 01:54:00,40.1,33.8,30.10,SW,236,6.9,6.9,78,0.00,CLR,,0.00,0.0,WeatherDisplay:10.37,2013-01-09 07:54:00,
2013-01-09 01:59:00,40.0,33.7,30.10,WSW,245,4.6,4.6,78,0.00,CLR,,0.00,0.0,WeatherDisplay:10.37,2013-01-09 07:59:00,
2013-01-09 02:04:00,39.8,33.8,30.10,WSW,238,5.8,5.8,79,0.00,CLR,,0.00,0.0,WeatherDisplay:10.37,2013-01-09 08:04:00,
2013-01-09 02:09:00,39.7,33.7,30.10,WSW,242,6.9,6.9,79,0.00,CLR,,0.00,0.0,WeatherDisplay:10.37,2013-01-09 08:09:00,
2013-01-09 02:14:00,39.5,33.5,30.10,WSW,248,10.4,10.4,79,0.00,CLR,,0.00,0.0,WeatherDisplay:10.37,2013-01-09 08:14:00,
2013-01-09 02:19:00,39.5,33.5,30.10,WSW,256,6.9,6.9,79,0.00,CLR,,0.00,0.0,WeatherDisplay:10.37,2013-01-09 08:19:00,
2013-01-09 02:24:00,39.4,33.7,30.11,WSW,244,11.5,11.5,80,0.00,CLR,,0.00,0.0,WeatherDisplay:10.37,2013-01-09 08:24:00,
2013-01-09 02:29:00,39.4,33.7,30.11,WSW,240,5.8,5.8,80,0.00,CLR,,0.00,0.0,WeatherDisplay:10.37,2013-01-09 08:29:00,
2013-01-09 02:34:00,39.3,33.6,30.12,WSW,253,3.5,3.5,80,0.00,CLR,,0.00,0.0,WeatherDisplay:10.37,2013-01-09 08:34:00,
2013-01-09 02:39:00,39.0,33.4,30.12,WSW,253,4.6,4.6,80,0.00,CLR,,0.00,0.0,WeatherDisplay:10.37,2013-01-09 08:39:00,
2013-01-09 02:44:00,38.8,33.2,30.12,SW,235,6.9,6.9,80,0.00,CLR,,0.00,0.0,WeatherDisplay:10.37,2013-01-09 08:44:00,
2013-01-09 02:49:00,38.7,33.1,30.12,WSW,254,9.2,9.2,80,0.00,CLR,,0.00,0.0,WeatherDisplay:10.37,2013-01-09 08:49:00,
2013-01-09 02:54:00,38.6,33.3,30.12,WSW,246,6.0,6.0,81,0.00,CLR,,0.00,0.0,WeatherDisplay:10.37,2013-01-09 08:54:00,
2013-01-09 02:59:00,38.4,33.1,30.12,WSW,253,6.9,6.9,81,0.00,CLR,,0.00,0.0,WeatherDisplay:10.37,2013-01-09 08:59:00,
2013-01-09 03:04:00,38.4,33.1,30.12,WSW,244,8.1,8.1,81,0.00,CLR,,0.00,0.0,WeatherDisplay:10.37,2013-01-09 09:04:00,
2013-01-09 03:09:00,38.3,33.3,30.13,WSW,244,6.9,6.9,82,0.00,CLR,,0.00,0.0,WeatherDisplay:10.37,2013-01-09 09:09:00,
2013-01-09 03:14:00,38.3,33.3,30.13,WSW,248,8.1,8.1,82,0.00,CLR,,0.00,0.0,WeatherDisplay:10.37,2013-01-09 09:14:00,
2013-01-09 03:19:00,38.2,33.2,30.14,WSW,244,5.8,5.8,82,0.00,CLR,,0.00,0.0,WeatherDisplay:10.37,2013-01-09 09:19:00,
2013-01-09 03:29:00,37.9,32.9,30.14,WSW,241,6.9,6.9,82,0.00,CLR,,0.00,0.0,WeatherDisplay:10.37,2013-01-09 09:29:00,
2013-01-09 03:34:00,37.9,32.9,30.14,SW,236,9.2,9.2,82,0.00,CLR,,0.00,0.0,WeatherDisplay:10.37,2013-01-09 09:34:00,
2013-01-09 03:39:00,37.8,32.8,30.15,WSW,245,11.5,11.5,82,0.00,CLR,,0.00,0.0,WeatherDisplay:10.37,2013-01-09 09:39:00,
2013-01-09 03:44:00,37.7,32.7,30.15,SW,236,11.5,11.5,82,0.00,CLR,,0.00,0.0,WeatherDisplay:10.37,2013-01-09 09:44:00,
2013-01-09 03:49:00,37.7,32.7,30.15,WSW,237,10.4,10.4,82,0.00,CLR,,0.00,0.0,WeatherDisplay:10.37,2013-01-09 09:49:00,
2013-01-09 03:54:00,37.6,32.9,30.15,WSW,254,6.9,6.9,83,0.00,CLR,,0.00,0.0,WeatherDisplay:10.37,2013-01-09 09:54:00,
2013-01-09 03:59:00,37.5,32.8,30.15,WSW,250,6.9,6.9,83,0.00,CLR,,0.00,0.0,WeatherDisplay:10.37,2013-01-09 09:59:00,
2013-01-09 04:04:00,37.4,32.7,30.16,WSW,240,5.8,5.8,83,0.00,CLR,,0.00,0.0,WeatherDisplay:10.37,2013-01-09 10:04:00,
2013-01-09 04:09:00,37.3,32.6,30.16,WSW,241,6.9,6.9,83,0.00,CLR,,0.00,0.0,WeatherDisplay:10.37,2013-01-09 10:09:00,
2013-01-09 04:14:00,37.2,32.5,30.16,WSW,243,6.9,6.9,83,0.00,CLR,,0.00,0.0,WeatherDisplay:10.37,2013-01-09 10:14:00,
2013-01-09 04:19:00,37.0,32.3,30.16,WSW,256,6.9,6.9,83,0.00,CLR,,0.00,0.0,WeatherDisplay:10.37,2013-01-09 10:19:00,
2013-01-09 04:24:00,37.0,32.3,30.17,WSW,247,6.9,6.9,83,0.00,CLR,,0.00,0.0,WeatherDisplay:10.37,2013-01-09 10:24:00,
2013-01-09 04:29:00,36.9,32.5,30.17,West,265,6.9,6.9,84,0.00,CLR,,0.00,0.0,WeatherDisplay:10.37,2013-01-09 10:29:00,
2013-01-09 04:34:00,36.7,32.3,30.17,West,259,5.8,5.8,84,0.00,CLR,,0.00,0.0,WeatherDisplay:10.37,2013-01-09 10:34:00,
2013-01-09 04:39:00,36.6,32.2,30.17,WSW,244,5.8,5.8,84,0.00,CLR,,0.00,0.0,WeatherDisplay:10.37,2013-01-09 10:39:00,
2013-01-09 04:44:00,36.5,32.1,30.18,WSW,249,3.5,3.5,84,0.00,CLR,,0.00,0.0,WeatherDisplay:10.37,2013-01-09 10:44:00,
2013-01-09 04:49:00,36.4,32.0,30.18,WSW,245,4.6,4.6,84,0.00,CLR,,0.00,0.0,WeatherDisplay:10.37,2013-01-09 10:49:00,
2013-01-09 04:54:00,36.4,32.3,30.18,WSW,251,8.1,8.1,85,0.00,CLR,,0.00,0.0,WeatherDisplay:10.37,2013-01-09 10:54:00,
2013-01-09 04:59:00,36.4,32.3,30.18,WSW,245,10.4,10.4,85,0.00,CLR,,0.00,0.0,WeatherDisplay:10.37,2013-01-09 10:59:00,
2013-01-09 05:04:00,36.4,32.3,30.18,West,270,6.9,6.9,85,0.00,CLR,,0.00,0.0,WeatherDisplay:10.37,2013-01-09 11:04:00,
2013-01-09 05:10:00,36.3,32.2,30.19,West,264,6.9,6.9,85,0.00,CLR,,0.00,0.0,WeatherDisplay:10.37,2013-01-09 11:10:00,
2013-01-09 05:15:00,36.2,32.1,30.19,West,259,9.2,9.2,85,0.00,CLR,,0.00,0.0,WeatherDisplay:10.37,2013-01-09 11:15:00,
2013-01-09 05:20:00,36.1,32.0,30.20,West,272,10.4,10.4,85,0.00,CLR,,0.00,0.0,WeatherDisplay:10.37,2013-01-09 11:20:00,
2013-01-09 05:25:00,35.9,31.8,30.20,West,276,5.8,5.8,85,0.00,CLR,,0.00,0.0,WeatherDisplay:10.37,2013-01-09 11:25:00,
2013-01-09 05:30:00,35.8,31.7,30.20,West,264,6.9,6.9,85,0.00,CLR,,0.00,0.0,WeatherDisplay:10.37,2013-01-09 11:30:00,
2013-01-09 05:35:00,35.6,31.5,30.20,West,275,11.5,11.5,85,0.00,CLR,,0.00,0.0,WeatherDisplay:10.37,2013-01-09 11:35:00,
2013-01-09 05:40:00,35.6,31.8,30.21,West,265,4.6,4.6,86,0.00,CLR,,0.00,0.0,WeatherDisplay:10.37,2013-01-09 11:40:00,
2013-01-09 05:45:00,35.6,31.8,30.21,WSW,249,5.8,5.8,86,0.00,CLR,,0.00,0.0,WeatherDisplay:10.37,2013-01-09 11:45:00,
2013-01-09 05:50:00,35.6,31.8,30.21,WSW,250,6.9,6.9,86,0.00,CLR,,0.00,0.0,WeatherDisplay:10.37,2013-01-09 11:50:00,
2013-01-09 05:55:00,35.5,31.7,30.21,WSW,248,4.6,4.6,86,0.00,CLR,,0.00,0.0,WeatherDisplay:10.37,2013-01-09 11:55:00,
2013-01-09 06:00:00,35.5,31.7,30.22,SW,234,5.8,5.8,86,0.00,CLR,,0.00,0.0,WeatherDisplay:10.37,2013-01-09 12:00:00,
2013-01-09 06:05:00,35.3,31.5,30.22,WSW,243,4.6,4.6,86,0.00,CLR,,0.00,0.0,WeatherDisplay:10.37,2013-01-09 12:05:00,
2013-01-09 06:10:00,35.3,31.5,30.23,WSW,240,4.0,4.0,86,0.00,CLR,,0.00,0.0,WeatherDisplay:10.37,2013-01-09 12:10:00,
2013-01-09 06:15:00,35.2,31.4,30.23,WSW,244,4.6,4.6,86,0.00,CLR,,0.00,0.0,WeatherDisplay:10.37,2013-01-09 12:15:00,
2013-01-09 06:20:00,35.2,31.4,30.23,WSW,237,5.8,5.8,86,0.00,CLR,,0.00,0.0,WeatherDisplay:10.37,2013-01-09 12:20:00,
2013-01-09 06:25:00,35.0,31.2,30.24,WSW,237,3.5,3.5,86,0.00,CLR,,0.00,0.0,WeatherDisplay:10.37,2013-01-09 12:25:00,
2013-01-09 06:30:00,34.9,31.1,30.23,WSW,239,2.3,0.0,86,0.00,CLR,,0.00,0.0,WeatherDisplay:10.37,2013-01-09 12:30:00,
2013-01-09 06:35:00,34.8,31.0,30.24,SW,236,3.5,3.5,86,0.00,CLR,,0.00,0.0,WeatherDisplay:10.37,2013-01-09 12:35:00,
2013-01-09 06:40:00,34.6,30.8,30.24,WSW,237,5.8,5.8,86,0.00,CLR,,0.00,0.0,WeatherDisplay:10.37,2013-01-09 12:40:00,
2013-01-09 06:45:00,34.6,31.1,30.24,SW,234,3.5,3.5,87,0.00,CLR,,0.00,0.0,WeatherDisplay:10.37,2013-01-09 12:45:00,
2013-01-09 06:50:00,34.6,31.1,30.24,SW,234,4.6,4.6,87,0.00,CLR,,0.00,0.0,WeatherDisplay:10.37,2013-01-09 12:50:00,
2013-01-09 06:55:00,34.6,31.1,30.24,WSW,238,5.8,5.8,87,0.00,CLR,,0.00,0.0,WeatherDisplay:10.37,2013-01-09 12:55:00,
2013-01-09 07:00:00,34.6,31.1,30.23,WSW,239,3.5,3.5,87,0.00,OVC,,0.00,0.0,WeatherDisplay:10.37,2013-01-09 13:00:00,
2013-01-09 07:05:00,34.7,31.2,30.24,West,259,5.8,5.8,87,0.00,OVC,,0.00,0.0,WeatherDisplay:10.37,2013-01-09 13:05:00,
2013-01-09 07:10:00,34.8,31.3,30.24,WSW,256,4.6,4.6,87,0.00,OVC,,0.00,0.0,WeatherDisplay:10.37,2013-01-09 13:10:00,
2013-01-09 07:15:00,34.8,31.3,30.24,WSW,252,2.3,0.0,87,0.00,OVC,,0.00,0.0,WeatherDisplay:10.37,2013-01-09 13:15:00,
2013-01-09 07:20:00,34.8,31.3,30.24,WSW,250,3.5,3.5,87,0.00,OVC,,0.00,0.0,WeatherDisplay:10.37,2013-01-09 13:20:00,
2013-01-09 07:25:00,34.9,31.4,30.24,WSW,244,5.8,5.8,87,0.00,OVC,,0.00,0.0,WeatherDisplay:10.37,2013-01-09 13:25:00,
2013-01-09 07:30:00,34.9,31.4,30.24,WSW,242,4.0,4.0,87,0.00,OVC,,0.00,5.0,WeatherDisplay:10.37,2013-01-09 13:30:00,
2013-01-09 07:35:00,34.8,31.3,30.24,SSW,202,4.6,4.6,87,0.00,BKN,,0.00,9.0,WeatherDisplay:10.37,2013-01-09 13:35:00,
2013-01-09 07:40:00,34.6,32.5,30.25,SSW,213,4.6,4.6,92,0.00,OVC,,0.00,12.0,WeatherDisplay:10.37,2013-01-09 13:40:00,
2013-01-09 07:45:00,34.4,30.6,30.25,SW,214,3.5,3.5,86,0.00,OVC,,0.00,16.0,WeatherDisplay:10.37,2013-01-09 13:45:00,
2013-01-09 07:50:00,34.4,30.6,30.25,SW,217,3.5,3.5,86,0.00,OVC,,0.00,19.0,WeatherDisplay:10.37,2013-01-09 13:50:00,
2013-01-09 07:55:00,34.4,30.9,30.26,SW,217,0.0,0.0,87,0.00,OVC,,0.00,23.0,WeatherDisplay:10.37,2013-01-09 13:55:00,
2013-01-09 08:00:00,34.4,30.9,30.27,SW,218,3.5,3.5,87,0.00,OVC,,0.00,33.0,WeatherDisplay:10.37,2013-01-09 14:00:00,
2013-01-09 08:05:00,34.4,30.9,30.27,SW,218,3.5,3.5,87,0.00,OVC,,0.00,39.0,WeatherDisplay:10.37,2013-01-09 14:05:00,
2013-01-09 08:10:00,34.4,30.9,30.28,WSW,237,5.8,5.8,87,0.00,BKN,,0.00,69.0,WeatherDisplay:10.37,2013-01-09 14:10:00,
2013-01-09 08:15:00,34.7,31.5,30.29,WSW,238,8.1,8.1,88,0.00,OVC,,0.00,54.0,WeatherDisplay:10.37,2013-01-09 14:15:00,
2013-01-09 08:20:00,35.0,31.5,30.29,WSW,240,5.0,5.0,87,0.00,OVC,,0.00,47.0,WeatherDisplay:10.37,2013-01-09 14:20:00,
2013-01-09 08:25:00,35.3,31.8,30.29,WSW,248,4.6,4.6,87,0.00,OVC,,0.00,60.0,WeatherDisplay:10.37,2013-01-09 14:25:00,
2013-01-09 08:30:00,35.5,32.0,30.29,WSW,246,6.9,6.9,87,0.00,OVC,,0.00,51.0,WeatherDisplay:10.37,2013-01-09 14:30:00,
2013-01-09 08:35:00,35.7,32.2,30.30,WSW,248,4.6,4.6,87,0.00,SCT,,0.00,141.0,WeatherDisplay:10.37,2013-01-09 14:35:00,
2013-01-09 08:40:00,36.0,33.9,30.30,SW,226,6.9,6.9,92,0.00,BKN,,0.00,86.0,WeatherDisplay:10.37,2013-01-09 14:40:00,
2013-01-09 08:45:00,36.3,32.5,30.30,WSW,242,10.4,10.4,86,0.00,OVC,,0.00,62.0,WeatherDisplay:10.37,2013-01-09 14:45:00,
2013-01-09 08:50:00,36.6,32.8,30.30,WSW,250,11.5,11.5,86,0.00,FEW,,0.00,223.0,WeatherDisplay:10.37,2013-01-09 14:50:00,
2013-01-09 08:55:00,36.9,32.8,30.30,WSW,241,10.4,10.4,85,0.00,SCT,,0.00,195.0,WeatherDisplay:10.37,2013-01-09 14:55:00,
2013-01-09 09:00:00,37.2,33.1,30.30,WSW,238,11.5,11.5,85,0.00,SCT,,0.00,167.0,WeatherDisplay:10.37,2013-01-09 15:00:00,
2013-01-09 09:05:00,37.5,33.1,30.31,WSW,253,11.5,11.5,84,0.00,SCT,,0.00,207.0,WeatherDisplay:10.37,2013-01-09 15:05:00,
2013-01-09 09:10:00,37.8,33.4,30.31,West,272,6.9,6.9,84,0.00,BKN,,0.00,130.0,WeatherDisplay:10.37,2013-01-09 15:10:00,
2013-01-09 09:15:00,38.0,33.3,30.31,West,266,11.5,11.5,83,0.00,BKN,,0.00,186.0,WeatherDisplay:10.37,2013-01-09 15:15:00,
2013-01-09 09:20:00,38.2,33.5,30.32,West,260,11.0,11.0,83,0.00,SCT,,0.00,216.0,WeatherDisplay:10.37,2013-01-09 15:20:00,
2013-01-09 09:25:00,38.4,33.4,30.32,West,269,13.8,13.8,82,0.00,BKN,,0.00,181.0,WeatherDisplay:10.37,2013-01-09 15:25:00,
2013-01-09 09:30:00,38.7,33.7,30.32,WNW,292,6.9,6.9,82,0.00,SCT,,0.00,204.0,WeatherDisplay:10.37,2013-01-09 15:30:00,
2013-01-09 09:35:00,39.1,34.1,30.32,WSW,257,10.4,10.4,82,0.00,BKN,,0.00,204.0,WeatherDisplay:10.37,2013-01-09 15:35:00,
2013-01-09 09:40:00,39.3,34.0,30.32,West,268,9.2,9.2,81,0.00,SCT,,0.00,260.0,WeatherDisplay:10.37,2013-01-09 15:40:00,
2013-01-09 09:45:00,39.6,34.2,30.32,West,259,6.9,6.9,81,0.00,FEW,,0.00,330.0,WeatherDisplay:10.37,2013-01-09 15:45:00,
2013-01-09 09:50:00,39.9,34.5,30.33,West,264,10.4,10.4,81,0.00,FEW,,0.00,346.0,WeatherDisplay:10.37,2013-01-09 15:50:00,
2013-01-09 09:55:00,40.3,34.6,30.33,WSW,242,10.0,10.0,80,0.00,CLR,,0.00,390.0,WeatherDisplay:10.37,2013-01-09 15:55:00,
2013-01-09 10:01:00,40.6,34.6,30.34,WSW,246,13.8,13.8,79,0.00,FEW,,0.00,396.0,WeatherDisplay:10.37,2013-01-09 16:01:00,
2013-01-09 10:06:00,40.9,34.9,30.35,WSW,256,11.5,11.5,79,0.00,FEW,,0.00,408.0,WeatherDisplay:10.37,2013-01-09 16:06:00,
2013-01-09 10:11:00,41.3,35.3,30.35,WSW,242,13.8,13.8,79,0.00,FEW,,0.00,413.0,WeatherDisplay:10.37,2013-01-09 16:11:00,
2013-01-09 10:16:00,41.7,35.3,30.36,WSW,248,11.5,11.5,78,0.00,FEW,,0.00,413.0,WeatherDisplay:10.37,2013-01-09 16:16:00,
2013-01-09 10:21:00,42.1,35.7,30.35,WSW,257,4.6,4.6,78,0.00,FEW,,0.00,403.0,WeatherDisplay:10.37,2013-01-09 16:21:00,
2013-01-09 10:26:00,42.5,35.8,30.35,West,264,10.4,10.4,77,0.00,FEW,,0.00,417.0,WeatherDisplay:10.37,2013-01-09 16:26:00,
2013-01-09 10:31:00,42.9,35.5,30.36,WSW,253,8.1,8.1,75,0.00,SCT,,0.00,343.0,WeatherDisplay:10.37,2013-01-09 16:31:00,
2013-01-09 10:36:00,43.1,35.7,30.36,SW,230,11.5,11.5,75,0.00,FEW,,0.00,429.0,WeatherDisplay:10.37,2013-01-09 16:36:00,
2013-01-09 10:41:00,43.3,35.6,30.36,WSW,243,6.9,6.9,74,0.00,SCT,,0.00,343.0,WeatherDisplay:10.37,2013-01-09 16:41:00,
2013-01-09 10:46:00,43.4,35.7,30.37,WSW,258,11.5,11.5,74,0.00,FEW,,0.00,466.0,WeatherDisplay:10.37,2013-01-09 16:46:00,
2013-01-09 10:51:00,43.5,35.4,30.37,WSW,250,13.0,13.0,73,0.00,BKN,,0.00,260.0,WeatherDisplay:10.37,2013-01-09 16:51:00,
2013-01-09 10:56:00,43.2,35.1,30.38,WSW,253,15.0,15.0,73,0.00,SCT,,0.00,425.0,WeatherDisplay:10.37,2013-01-09 16:56:00,
2013-01-09 11:01:00,43.2,35.1,30.37,WSW,240,15.0,15.0,73,0.00,FEW,,0.00,422.0,WeatherDisplay:10.37,2013-01-09 17:01:00,
2013-01-09 11:06:00,43.5,35.1,30.37,WSW,257,13.8,13.8,72,0.00,SCT,,0.00,394.0,WeatherDisplay:10.37,2013-01-09 17:06:00,
2013-01-09 11:11:00,43.7,34.9,30.37,WSW,252,12.7,12.7,71,0.00,FEW,,0.00,411.0,WeatherDisplay:10.37,2013-01-09 17:11:00,
2013-01-09 11:16:00,44.0,35.2,30.38,West,275,11.5,11.5,71,0.00,SCT,,0.00,410.0,WeatherDisplay:10.37,2013-01-09 17:16:00,
2013-01-09 11:21:00,44.2,35.0,30.38,WSW,248,12.7,12.7,70,0.00,FEW,,0.00,427.0,WeatherDisplay:10.37,2013-01-09 17:21:00,
2013-01-09 11:26:00,44.4,34.9,30.37,WNW,288,16.1,16.1,69,0.00,SCT,,0.00,364.0,WeatherDisplay:10.37,2013-01-09 17:26:00,
2013-01-09 11:31:00,44.6,34.7,30.37,West,279,11.5,11.5,68,0.00,FEW,,0.00,438.0,WeatherDisplay:10.37,2013-01-09 17:31:00,
2013-01-09 11:36:00,44.8,34.9,30.37,West,259,12.7,12.7,68,0.00,SCT,,0.00,313.0,WeatherDisplay:10.37,2013-01-09 17:36:00,
2013-01-09 11:41:00,44.9,34.6,30.37,WSW,246,17.3,17.3,67,0.00,BKN,,0.00,239.0,WeatherDisplay:10.37,2013-01-09 17:41:00,
2013-01-09 11:46:00,45.0,34.3,30.37,West,273,13.8,13.8,66,0.00,SCT,,0.00,366.0,WeatherDisplay:10.37,2013-01-09 17:46:00,
2013-01-09 11:51:00,45.1,34.4,30.37,WSW,254,15.0,15.0,66,0.00,FEW,,0.00,448.0,WeatherDisplay:10.37,2013-01-09 17:51:00,
2013-01-09 11:56:00,45.5,34.8,30.37,West,281,10.4,10.4,66,0.00,SCT,,0.00,385.0,WeatherDisplay:10.37,2013-01-09 17:56:00,
2013-01-09 12:01:00,45.7,34.2,30.36,West,262,12.7,12.7,64,0.00,SCT,,0.00,390.0,WeatherDisplay:10.37,2013-01-09 18:01:00,
2013-01-09 12:06:00,45.9,34.8,30.36,West,272,11.5,11.5,65,0.00,SCT,,0.00,406.0,WeatherDisplay:10.37,2013-01-09 18:06:00,
2013-01-09 12:11:00,46.2,34.7,30.36,West,281,10.0,10.0,64,0.00,SCT,,0.00,390.0,WeatherDisplay:10.37,2013-01-09 18:11:00,
2013-01-09 12:16:00,46.4,34.5,30.36,West,277,11.5,11.5,63,0.00,BKN,,0.00,246.0,WeatherDisplay:10.37,2013-01-09 18:16:00,
2013-01-09 12:21:00,46.4,34.5,30.36,WSW,255,11.5,11.5,63,0.00,BKN,,0.00,292.0,WeatherDisplay:10.37,2013-01-09 18:21:00,
2013-01-09 12:26:00,46.4,34.1,30.36,West,268,12.7,12.7,62,0.00,BKN,,0.00,255.0,WeatherDisplay:10.37,2013-01-09 18:26:00,
2013-01-09 12:31:00,46.5,34.2,30.36,West,280,11.5,11.5,62,0.00,BKN,,0.00,285.0,WeatherDisplay:10.37,2013-01-09 18:31:00,
2013-01-09 12:36:00,46.7,34.4,30.36,WSW,238,3.5,3.5,62,0.00,SCT,,0.00,343.0,WeatherDisplay:10.37,2013-01-09 18:36:00,
2013-01-09 12:41:00,47.1,34.3,30.36,West,261,5.8,6.4,61,0.00,SCT,,0.00,388.0,WeatherDisplay:10.37,2013-01-09 18:41:00,
2013-01-09 12:42:00,47.2,34.4,30.36,WSW,245,13.8,13.8,61,0.00,SCT,,0.00,371.0,WeatherDisplay:10.37,2013-01-09 18:42:00,
2013-01-09 12:44:00,47.3,34.5,30.37,West,281,9.2,9.2,61,0.00,SCT,,0.00,302.0,WeatherDisplay:10.37,2013-01-09 18:44:00,
2013-01-09 12:46:00,47.4,34.2,30.36,West,263,13.8,13.8,60,0.00,BKN,,0.00,308.0,WeatherDisplay:10.37,2013-01-09 18:46:00,
2013-01-09 12:48:00,47.5,34.3,30.36,West,279,8.1,8.1,60,0.00,BKN,,0.00,290.0,WeatherDisplay:10.37,2013-01-09 18:48:00,
2013-01-09 12:53:00,47.7,34.9,30.36,WSW,238,9.0,9.0,61,0.00,SCT,,0.00,318.0,WeatherDisplay:10.37,2013-01-09 18:53:00,
2013-01-09 12:58:00,47.7,34.5,30.37,WNW,284,6.9,6.9,60,0.00,SCT,,0.00,336.0,WeatherDisplay:10.37,2013-01-09 18:58:00,
2013-01-09 13:03:00,47.7,34.5,30.37,West,268,19.6,19.6,60,0.00,SCT,,0.00,316.0,WeatherDisplay:10.37,2013-01-09 19:03:00,
2013-01-09 13:08:00,47.5,34.3,30.38,West,271,15.0,15.0,60,0.00,FEW,,0.00,424.0,WeatherDisplay:10.37,2013-01-09 19:08:00,
2013-01-09 13:13:00,47.4,34.2,30.38,WNW,283,19.6,19.6,60,0.00,SCT,,0.00,348.0,WeatherDisplay:10.37,2013-01-09 19:13:00,
2013-01-09 13:18:00,47.3,34.1,30.38,West,278,13.8,13.8,60,0.00,SCT,,0.00,343.0,WeatherDisplay:10.37,2013-01-09 19:18:00,
2013-01-09 13:23:00,47.2,34.0,30.39,West,274,15.0,15.0,60,0.00,SCT,,0.00,346.0,WeatherDisplay:10.37,2013-01-09 19:23:00,
2013-01-09 13:29:00,47.2,34.4,30.38,West,274,11.5,11.5,61,0.00,SCT,,0.00,332.0,WeatherDisplay:10.37,2013-01-09 19:29:00,
2013-01-09 13:34:00,47.2,34.0,30.38,West,273,18.4,18.4,60,0.00,SCT,,0.00,355.0,WeatherDisplay:10.37,2013-01-09 19:34:00,
2013-01-09 13:39:00,47.2,33.6,30.38,WNW,300,17.3,17.3,59,0.00,FEW,,0.00,383.0,WeatherDisplay:10.37,2013-01-09 19:39:00,
2013-01-09 13:44:00,47.3,33.7,30.39,West,263,16.1,16.1,59,0.00,FEW,,0.00,403.0,WeatherDisplay:10.37,2013-01-09 19:44:00,
2013-01-09 13:49:00,47.5,33.9,30.38,WNW,292,9.2,9.2,59,0.00,SCT,,0.00,350.0,WeatherDisplay:10.37,2013-01-09 19:49:00,
2013-01-09 13:54:00,47.6,33.1,30.39,WNW,291,18.4,18.4,57,0.00,SCT,,0.00,338.0,WeatherDisplay:10.37,2013-01-09 19:54:00,
2013-01-09 13:59:00,47.6,34.0,30.38,WNW,284,10.4,10.4,59,0.00,SCT,,0.00,325.0,WeatherDisplay:10.37,2013-01-09 19:59:00,
2013-01-09 14:04:00,47.7,33.6,30.39,WNW,288,13.8,13.8,58,0.00,SCT,,0.00,322.0,WeatherDisplay:10.37,2013-01-09 20:04:00,
2013-01-09 14:09:00,47.4,32.9,30.39,WNW,286,17.3,17.3,57,0.00,SCT,,0.00,330.0,WeatherDisplay:10.37,2013-01-09 20:09:00,
2013-01-09 14:14:00,47.2,33.6,30.39,WNW,296,11.5,11.5,59,0.00,SCT,,0.00,302.0,WeatherDisplay:10.37,2013-01-09 20:14:00,
2013-01-09 14:19:00,47.3,33.3,30.39,WNW,300,19.6,19.6,58,0.00,SCT,,0.00,287.0,WeatherDisplay:10.37,2013-01-09 20:19:00,
2013-01-09 14:24:00,47.2,33.2,30.40,WNW,297,16.1,16.1,58,0.00,SCT,,0.00,276.0,WeatherDisplay:10.37,2013-01-09 20:24:00,
2013-01-09 14:29:00,46.9,32.9,30.40,West,281,15.0,15.0,58,0.00,SCT,,0.00,311.0,WeatherDisplay:10.37,2013-01-09 20:29:00,
2013-01-09 14:34:00,46.6,33.0,30.40,NW,315,11.5,11.5,59,0.00,FEW,,0.00,313.0,WeatherDisplay:10.37,2013-01-09 20:34:00,
2013-01-09 14:39:00,46.5,32.9,30.41,WNW,288,18.4,18.4,59,0.00,FEW,,0.00,320.0,WeatherDisplay:10.37,2013-01-09 20:39:00,
2013-01-09 14:44:00,46.5,32.5,30.40,West,275,15.0,15.0,58,0.00,FEW,,0.00,334.0,WeatherDisplay:10.37,2013-01-09 20:44:00,
2013-01-09 14:49:00,46.7,32.7,30.41,WNW,286,11.5,11.5,58,0.00,FEW,,0.00,311.0,WeatherDisplay:10.37,2013-01-09 20:49:00,
2013-01-09 14:54:00,47.0,33.0,30.40,WNW,287,5.8,5.8,58,0.00,FEW,,0.00,316.0,WeatherDisplay:10.37,2013-01-09 20:54:00,
2013-01-09 14:59:00,47.2,33.2,30.41,WNW,291,11.5,11.5,58,0.00,FEW,,0.00,288.0,WeatherDisplay:10.37,2013-01-09 20:59:00,
2013-01-09 15:04:00,47.3,32.8,30.41,WNW,300,8.1,8.1,57,0.00,FEW,,0.00,255.0,WeatherDisplay:10.37,2013-01-09 21:04:00,
2013-01-09 15:09:00,47.2,33.2,30.41,WNW,302,5.8,5.8,58,0.00,FEW,,0.00,257.0,WeatherDisplay:10.37,2013-01-09 21:09:00,
2013-01-09 15:14:00,47.2,33.2,30.41,NW,309,6.9,6.9,58,0.00,SCT,,0.00,230.0,WeatherDisplay:10.37,2013-01-09 21:14:00,
2013-01-09 15:19:00,47.1,33.5,30.42,WNW,302,5.8,5.8,59,0.00,SCT,,0.00,190.0,WeatherDisplay:10.37,2013-01-09 21:19:00,
2013-01-09 15:24:00,46.8,32.8,30.42,West,277,11.0,11.0,58,0.00,SCT,,0.00,192.0,WeatherDisplay:10.37,2013-01-09 21:24:00,
2013-01-09 15:29:00,46.3,32.3,30.42,West,263,12.7,12.7,58,0.00,SCT,,0.00,172.0,WeatherDisplay:10.37,2013-01-09 21:29:00,
2013-01-09 15:34:00,45.8,31.9,30.42,WNW,298,11.5,11.5,58,0.00,SCT,,0.00,158.0,WeatherDisplay:10.37,2013-01-09 21:34:00,
2013-01-09 15:39:00,45.5,32.0,30.42,WNW,292,10.4,10.4,59,0.00,SCT,,0.00,139.0,WeatherDisplay:10.37,2013-01-09 21:39:00,
2013-01-09 15:44:00,45.3,31.4,30.43,WNW,288,8.1,8.1,58,0.00,SCT,,0.00,123.0,WeatherDisplay:10.37,2013-01-09 21:44:00,
2013-01-09 15:49:00,45.1,31.6,30.43,WNW,288,3.5,3.5,59,0.00,SCT,,0.00,123.0,WeatherDisplay:10.37,2013-01-09 21:49:00,
2013-01-09 15:54:00,45.0,30.7,30.43,WNW,284,10.4,10.4,57,0.00,SCT,,0.00,100.0,WeatherDisplay:10.37,2013-01-09 21:54:00,
2013-01-09 15:59:00,44.9,30.6,30.43,WNW,286,5.8,5.8,57,0.00,BKN,,0.00,90.0,WeatherDisplay:10.37,2013-01-09 21:59:00,
2013-01-09 16:04:00,44.8,30.5,30.43,WNW,286,0.0,0.3,57,0.00,BKN,,0.00,81.0,WeatherDisplay:10.37,2013-01-09 22:04:00,
2013-01-09 16:09:00,44.7,30.0,30.44,WNW,286,5.8,5.8,56,0.00,BKN,,0.00,67.0,WeatherDisplay:10.37,2013-01-09 22:09:00,
2013-01-09 16:14:00,44.5,29.3,30.44,WNW,302,3.5,3.5,55,0.00,BKN,,0.00,56.0,WeatherDisplay:10.37,2013-01-09 22:14:00,
2013-01-09 16:19:00,44.3,29.6,30.44,WNW,302,2.3,2.3,56,0.00,BKN,,0.00,40.0,WeatherDisplay:10.37,2013-01-09 22:19:00,
2013-01-09 16:24:00,44.1,29.4,30.44,WNW,302,2.3,2.3,56,0.00,BKN,,0.00,30.0,WeatherDisplay:10.37,2013-01-09 22:24:00,
2013-01-09 16:29:00,43.8,29.1,30.44,NNW,329,5.8,5.8,56,0.00,OVC,,0.00,23.0,WeatherDisplay:10.37,2013-01-09 22:29:00,
2013-01-09 16:34:00,43.5,29.7,30.43,NNW,329,3.5,3.5,58,0.00,OVC,,0.00,16.0,WeatherDisplay:10.37,2013-01-09 22:34:00,
2013-01-09 16:39:00,43.3,29.9,30.43,NNW,336,5.8,5.8,59,0.00,OVC,,0.00,11.0,WeatherDisplay:10.37,2013-01-09 22:39:00,
2013-01-09 16:44:00,43.0,30.1,30.43,NNW,334,1.2,0.0,60,0.00,OVC,,0.00,5.0,WeatherDisplay:10.37,2013-01-09 22:44:00,
2013-01-09 16:49:00,42.7,29.8,30.43,NNW,334,2.3,2.3,60,0.00,OVC,,0.00,0.0,WeatherDisplay:10.37,2013-01-09 22:49:00,
2013-01-09 16:54:00,42.5,30.0,30.43,NNW,334,0.0,0.0,61,0.00,OVC,,0.00,0.0,WeatherDisplay:10.37,2013-01-09 22:54:00,
2013-01-09 16:59:00,42.3,30.2,30.44,NNW,334,0.0,0.0,62,0.00,OVC,,0.00,0.0,WeatherDisplay:10.37,2013-01-09 22:59:00,
2013-01-09 17:04:00,42.0,29.9,30.43,NNW,334,0.0,0.0,62,0.00,CLR,,0.00,0.0,WeatherDisplay:10.37,2013-01-09 23:04:00,
2013-01-09 17:09:00,41.6,29.9,30.43,NNW,334,0.0,0.0,63,0.00,CLR,,0.00,0.0,WeatherDisplay:10.37,2013-01-09 23:09:00,
2013-01-09 17:14:00,41.2,29.9,30.43,NNW,334,0.0,0.0,64,0.00,CLR,,0.00,0.0,WeatherDisplay:10.37,2013-01-09 23:14:00,
2013-01-09 17:19:00,41.0,29.7,30.44,NNW,334,0.0,0.0,64,0.00,CLR,,0.00,0.0,WeatherDisplay:10.37,2013-01-09 23:19:00,
2013-01-09 17:24:00,40.9,30.0,30.44,NNW,334,0.0,0.0,65,0.00,CLR,,0.00,0.0,WeatherDisplay:10.37,2013-01-09 23:24:00,
2013-01-09 17:29:00,40.6,29.7,30.44,NNW,334,0.0,0.0,65,0.00,CLR,,0.00,0.0,WeatherDisplay:10.37,2013-01-09 23:29:00,
2013-01-09 17:34:00,40.3,29.5,30.44,NNW,334,0.0,0.0,65,0.00,CLR,,0.00,0.0,WeatherDisplay:10.37,2013-01-09 23:34:00,
2013-01-09 17:39:00,40.0,29.2,30.44,NNW,334,0.0,0.0,65,0.00,CLR,,0.00,0.0,WeatherDisplay:10.37,2013-01-09 23:39:00,
2013-01-09 17:44:00,39.7,29.3,30.44,NNW,334,0.0,0.0,66,0.00,CLR,,0.00,0.0,WeatherDisplay:10.37,2013-01-09 23:44:00,
2013-01-09 17:49:00,39.3,29.3,30.44,NNW,334,0.0,0.0,67,0.00,CLR,,0.00,0.0,WeatherDisplay:10.37,2013-01-09 23:49:00,
2013-01-09 17:54:00,38.9,28.9,30.44,NNW,334,0.0,0.0,67,0.00,CLR,,0.00,0.0,WeatherDisplay:10.37,2013-01-09 23:54:00,
2013-01-09 17:59:00,38.6,28.6,30.44,NNW,334,0.0,0.0,67,0.00,CLR,,0.00,0.0,WeatherDisplay:10.37,2013-01-09 23:59:00,
2013-01-09 18:04:00,38.2,28.6,30.44,NNW,334,0.0,0.0,68,0.00,CLR,,0.00,0.0,WeatherDisplay:10.37,2013-01-10 00:04:00,
2013-01-09 18:09:00,37.8,28.2,30.45,NNW,334,0.0,0.0,68,0.00,CLR,,0.00,0.0,WeatherDisplay:10.37,2013-01-10 00:09:00,
2013-01-09 18:14:00,37.4,28.2,30.45,NNW,334,0.0,0.0,69,0.00,CLR,,0.00,0.0,WeatherDisplay:10.37,2013-01-10 00:14:00,
2013-01-09 18:19:00,36.7,27.8,30.46,NNW,334,0.0,0.0,70,0.00,CLR,,0.00,0.0,WeatherDisplay:10.37,2013-01-10 00:19:00,
2013-01-09 18:24:00,36.1,27.9,30.46,NNW,334,0.0,0.0,72,0.00,CLR,,0.00,0.0,WeatherDisplay:10.37,2013-01-10 00:24:00,
2013-01-09 18:29:00,35.7,27.6,30.46,NNW,334,0.0,0.0,72,0.00,CLR,,0.00,0.0,WeatherDisplay:10.37,2013-01-10 00:29:00,
2013-01-09 18:34:00,35.4,27.6,30.46,NNW,334,0.0,0.0,73,0.00,CLR,,0.00,0.0,WeatherDisplay:10.37,2013-01-10 00:34:00,
2013-01-09 18:39:00,35.2,27.4,30.47,NNW,334,0.0,0.0,73,0.00,CLR,,0.00,0.0,WeatherDisplay:10.37,2013-01-10 00:39:00,
2013-01-09 18:44:00,34.9,27.1,30.47,NNW,334,0.0,0.0,73,0.00,CLR,,0.00,0.0,WeatherDisplay:10.37,2013-01-10 00:44:00,
2013-01-09 18:49:00,34.4,27.0,30.47,NNW,334,0.0,0.0,74,0.00,CLR,,0.00,0.0,WeatherDisplay:10.37,2013-01-10 00:49:00,
2013-01-09 18:54:00,34.2,27.1,30.47,NNW,334,0.0,0.0,75,0.00,CLR,,0.00,0.0,WeatherDisplay:10.37,2013-01-10 00:54:00,
2013-01-09 18:59:00,33.9,27.1,30.47,NNW,334,0.0,0.0,76,0.00,CLR,,0.00,0.0,WeatherDisplay:10.37,2013-01-10 00:59:00,
2013-01-09 19:04:00,33.6,27.2,30.47,NNW,334,0.0,0.0,77,0.00,CLR,,0.00,0.0,WeatherDisplay:10.37,2013-01-10 01:04:00,
2013-01-09 19:09:00,33.3,26.9,30.48,NNW,334,0.0,0.0,77,0.00,CLR,,0.00,0.0,WeatherDisplay:10.37,2013-01-10 01:09:00,
2013-01-09 19:14:00,33.1,26.7,30.48,NNW,334,0.0,0.0,77,0.00,CLR,,0.00,0.0,WeatherDisplay:10.37,2013-01-10 01:14:00,
2013-01-09 19:19:00,32.8,26.4,30.48,NNW,334,0.0,0.0,77,0.00,CLR,,0.00,0.0,WeatherDisplay:10.37,2013-01-10 01:19:00,
2013-01-09 19:24:00,32.4,26.3,30.49,NNW,334,0.0,0.0,78,0.00,CLR,,0.00,0.0,WeatherDisplay:10.37,2013-01-10 01:24:00,
2013-01-09 19:30:00,32.1,26.3,30.49,NNW,334,0.0,0.0,79,0.00,CLR,,0.00,0.0,WeatherDisplay:10.37,2013-01-10 01:30:00,
2013-01-09 19:34:00,31.9,26.1,30.49,NNW,334,0.0,0.0,79,0.00,CLR,,0.00,0.0,WeatherDisplay:10.37,2013-01-10 01:34:00,
2013-01-09 19:40:00,31.7,26.2,30.49,NNW,334,0.0,0.0,80,0.00,CLR,,0.00,0.0,WeatherDisplay:10.37,2013-01-10 01:40:00,
2013-01-09 19:45:00,31.5,26.0,30.49,NNW,334,0.0,0.0,80,0.00,CLR,,0.00,0.0,WeatherDisplay:10.37,2013-01-10 01:45:00,
2013-01-09 19:50:00,31.4,25.9,30.49,NNW,334,0.0,0.0,80,0.00,CLR,,0.00,0.0,WeatherDisplay:10.37,2013-01-10 01:50:00,
2013-01-09 19:55:00,31.2,26.0,30.49,NNW,334,0.0,0.0,81,0.00,CLR,,0.00,0.0,WeatherDisplay:10.37,2013-01-10 01:55:00,
2013-01-09 20:00:00,31.0,25.9,30.50,NNW,334,0.0,0.0,81,0.00,CLR,,0.00,0.0,WeatherDisplay:10.37,2013-01-10 02:00:00,
2013-01-09 20:05:00,30.8,25.7,30.49,NNW,334,0.0,0.0,81,0.00,CLR,,0.00,0.0,WeatherDisplay:10.37,2013-01-10 02:05:00,
2013-01-09 20:10:00,30.7,25.6,30.49,NNW,334,0.0,0.0,81,0.00,CLR,,0.00,0.0,WeatherDisplay:10.37,2013-01-10 02:10:00,
2013-01-09 20:15:00,30.6,25.8,30.49,NNW,334,0.0,0.0,82,0.00,CLR,,0.00,0.0,WeatherDisplay:10.37,2013-01-10 02:15:00,
2013-01-09 20:20:00,30.5,26.0,30.49,NNW,334,0.0,0.0,83,0.00,CLR,,0.00,0.0,WeatherDisplay:10.37,2013-01-10 02:20:00,
2013-01-09 20:25:00,30.3,26.0,30.49,NNW,334,0.0,0.0,84,0.00,CLR,,0.00,0.0,WeatherDisplay:10.37,2013-01-10 02:25:00,
2013-01-09 20:30:00,30.3,26.0,30.49,NNW,334,0.0,0.0,84,0.00,CLR,,0.00,0.0,WeatherDisplay:10.37,2013-01-10 02:30:00,
2013-01-09 20:35:00,30.1,25.8,30.48,NNW,334,0.0,0.0,84,0.00,CLR,,0.00,0.0,WeatherDisplay:10.37,2013-01-10 02:35:00,
2013-01-09 20:40:00,30.1,26.1,30.48,NNW,334,0.0,0.0,85,0.00,CLR,,0.00,0.0,WeatherDisplay:10.37,2013-01-10 02:40:00,
2013-01-09 20:45:00,29.9,25.9,30.48,NNW,334,0.0,0.0,85,0.00,CLR,,0.00,0.0,WeatherDisplay:10.37,2013-01-10 02:45:00,
2013-01-09 20:50:00,29.8,25.8,30.49,NNW,334,0.0,0.0,85,0.00,CLR,,0.00,0.0,WeatherDisplay:10.37,2013-01-10 02:50:00,
2013-01-09 20:55:00,29.6,25.6,30.49,NNW,334,0.0,0.0,85,0.00,CLR,,0.00,0.0,WeatherDisplay:10.37,2013-01-10 02:55:00,
2013-01-09 21:00:00,29.5,25.5,30.49,NNW,334,0.0,0.0,85,0.00,CLR,,0.00,0.0,WeatherDisplay:10.37,2013-01-10 03:00:00,
2013-01-09 21:05:00,29.4,25.4,30.49,NNW,334,0.0,0.0,85,0.00,CLR,,0.00,0.0,WeatherDisplay:10.37,2013-01-10 03:05:00,
2013-01-09 21:10:00,29.2,25.3,30.49,NNW,334,0.0,0.0,85,0.00,CLR,,0.00,0.0,WeatherDisplay:10.37,2013-01-10 03:10:00,
2013-01-09 21:15:00,29.0,25.1,30.49,NNW,334,0.0,0.0,85,0.00,CLR,,0.00,0.0,WeatherDisplay:10.37,2013-01-10 03:15:00,
2013-01-09 21:20:00,28.8,24.9,30.49,NNW,334,0.0,0.0,85,0.00,CLR,,0.00,0.0,WeatherDisplay:10.37,2013-01-10 03:20:00,
2013-01-09 21:25:00,28.7,26.7,30.49,NNW,334,0.0,0.0,92,0.00,CLR,,0.00,0.0,WeatherDisplay:10.37,2013-01-10 03:25:00,
2013-01-09 21:30:00,28.7,24.8,30.49,NNW,334,0.0,0.0,85,0.00,CLR,,0.00,0.0,WeatherDisplay:10.37,2013-01-10 03:30:00,
2013-01-09 21:35:00,28.5,24.8,30.49,NNW,334,0.0,0.0,86,0.00,CLR,,0.00,0.0,WeatherDisplay:10.37,2013-01-10 03:35:00,
2013-01-09 21:40:00,28.4,24.7,30.49,NNW,334,0.0,0.0,86,0.00,CLR,,0.00,0.0,WeatherDisplay:10.37,2013-01-10 03:40:00,
2013-01-09 21:45:00,28.3,24.6,30.49,NNW,334,0.0,0.0,86,0.00,CLR,,0.00,0.0,WeatherDisplay:10.37,2013-01-10 03:45:00,
2013-01-09 21:50:00,28.3,24.6,30.49,NNW,334,0.0,0.0,86,0.00,CLR,,0.00,0.0,WeatherDisplay:10.37,2013-01-10 03:50:00,
2013-01-09 21:55:00,28.2,24.8,30.49,NNW,334,0.0,0.0,87,0.00,CLR,,0.00,0.0,WeatherDisplay:10.37,2013-01-10 03:55:00,
2013-01-09 22:00:00,28.2,24.8,30.49,NNW,334,0.0,0.0,87,0.00,CLR,,0.00,0.0,WeatherDisplay:10.37,2013-01-10 04:00:00,
2013-01-09 22:05:00,28.1,24.7,30.49,NNW,334,0.0,0.0,87,0.00,CLR,,0.00,0.0,WeatherDisplay:10.37,2013-01-10 04:05:00,
2013-01-09 22:10:00,28.1,24.7,30.49,NNW,334,0.0,0.0,87,0.00,CLR,,0.00,0.0,WeatherDisplay:10.37,2013-01-10 04:10:00,
2013-01-09 22:15:00,28.0,24.6,30.49,NNW,334,0.0,0.0,87,0.00,CLR,,0.00,0.0,WeatherDisplay:10.37,2013-01-10 04:15:00,
2013-01-09 22:20:00,27.9,24.8,30.49,NNW,334,0.0,0.0,88,0.00,CLR,,0.00,0.0,WeatherDisplay:10.37,2013-01-10 04:20:00,
2013-01-09 22:25:00,27.8,24.7,30.50,NNW,334,0.0,0.0,88,0.00,CLR,,0.00,0.0,WeatherDisplay:10.37,2013-01-10 04:25:00,
2013-01-09 22:30:00,27.7,24.6,30.50,NNW,334,0.0,0.0,88,0.00,CLR,,0.00,0.0,WeatherDisplay:10.37,2013-01-10 04:30:00,
2013-01-09 22:35:00,27.6,24.5,30.50,NNW,334,0.0,0.0,88,0.00,CLR,,0.00,0.0,WeatherDisplay:10.37,2013-01-10 04:35:00,
2013-01-09 22:40:00,27.5,24.4,30.51,NNW,334,0.0,0.0,88,0.00,CLR,,0.00,0.0,WeatherDisplay:10.37,2013-01-10 04:40:00,
2013-01-09 22:45:00,27.4,24.3,30.50,NNW,334,0.0,0.0,88,0.00,CLR,,0.00,0.0,WeatherDisplay:10.37,2013-01-10 04:45:00,
2013-01-09 22:50:00,27.3,24.2,30.51,NNW,334,0.0,0.0,88,0.00,CLR,,0.00,0.0,WeatherDisplay:10.37,2013-01-10 04:50:00,
2013-01-09 22:55:00,27.3,24.2,30.51,NNW,334,0.0,0.0,88,0.00,CLR,,0.00,0.0,WeatherDisplay:10.37,2013-01-10 04:55:00,
2013-01-09 23:00:00,27.2,24.4,30.50,NNW,334,0.0,0.0,89,0.00,CLR,,0.00,0.0,WeatherDisplay:10.37,2013-01-10 05:00:00,
2013-01-09 23:02:00,27.2,24.4,30.50,NNW,334,0.0,0.0,89,0.00,CLR,,0.00,0.0,WeatherDisplay:10.37,2013-01-10 05:02:00,
2013-01-09 23:03:00,27.2,24.4,30.50,NNW,334,0.0,0.0,89,0.00,CLR,,0.00,0.0,WeatherDisplay:10.37,2013-01-10 05:03:00,
2013-01-09 23:08:00,27.1,24.3,30.51,NNW,334,0.0,0.0,89,0.00,CLR,,0.00,0.0,WeatherDisplay:10.37,2013-01-10 05:08:00,
2013-01-09 23:13:00,27.0,24.2,30.51,NNW,334,0.0,0.0,89,0.00,CLR,,0.00,0.0,WeatherDisplay:10.37,2013-01-10 05:13:00,
2013-01-09 23:18:00,27.0,24.2,30.51,NNW,334,0.0,0.0,89,0.00,CLR,,0.00,0.0,WeatherDisplay:10.37,2013-01-10 05:18:00,
2013-01-09 23:23:00,27.0,24.2,30.51,NNW,334,0.0,0.0,89,0.00,CLR,,0.00,0.0,WeatherDisplay:10.37,2013-01-10 05:23:00,
2013-01-09 23:28:00,27.0,24.5,30.51,NNW,334,0.0,0.0,90,0.00,CLR,,0.00,0.0,WeatherDisplay:10.37,2013-01-10 05:28:00,
2013-01-09 23:33:00,27.0,24.5,30.51,NNW,334,0.0,0.0,90,0.00,CLR,,0.00,0.0,WeatherDisplay:10.37,2013-01-10 05:33:00,
2013-01-09 23:38:00,27.0,24.5,30.51,NNW,334,0.0,0.0,90,0.00,CLR,,0.00,0.0,WeatherDisplay:10.37,2013-01-10 05:38:00,
2013-01-09 23:43:00,27.0,24.5,30.51,NNW,334,0.0,0.0,90,0.00,CLR,,0.00,0.0,WeatherDisplay:10.37,2013-01-10 05:43:00,
2013-01-09 23:48:00,26.9,24.4,30.51,NNW,334,0.0,0.0,90,0.00,CLR,,0.00,0.0,WeatherDisplay:10.37,2013-01-10 05:48:00,
2013-01-09 23:53:00,26.9,24.4,30.51,NNW,334,0.0,0.0,90,0.00,CLR,,0.00,0.0,WeatherDisplay:10.37,2013-01-10 05:53:00,
2013-01-09 23:58:00,26.8,24.3,30.50,NNW,334,0.0,0.0,90,0.00,CLR,,0.00,0.0,WeatherDisplay:10.37,2013-01-10 05:58:00,